This is the latest recevied weather packets stored in our database for station/object K0QED. If no packets are shown the sender has not sent any weather packets the latest 10 day(s).
| Time | Temp. | Humidity | Pressure | Rain* | Wind** | Luminosity | Snow |
|---|---|---|---|---|---|---|---|
| 1777351913 | 0.56° C | 98% | 1017.9 hPa | 0 mm | - | 0 W/m² | - |
| 1777351611 | 0.56° C | 98% | 1017.6 hPa | 0 mm | - | 0 W/m² | - |
| 1777351308 | 0.56° C | 98% | 1017.6 hPa | 0 mm | - | 0 W/m² | - |
| 1777351007 | 0.56° C | 98% | 1018.2 hPa | 0 mm | - | 0 W/m² | - |
| 1777350704 | 0.56° C | 98% | 1017.1 hPa | 0 mm | - | 0 W/m² | - |
| 1777350400 | 0.56° C | 98% | 1017.5 hPa | 0 mm | - | 0 W/m² | - |
| 1777350097 | 0.56° C | 98% | 1018.2 hPa | 0 mm | - | 0 W/m² | - |
| 1777349795 | 0.56° C | 97% | 1017.6 hPa | 0 mm | - | 0 W/m² | - |
| 1777349492 | 1.11° C | 97% | 1018.1 hPa | 0 mm | - | 0 W/m² | - |
| 1777349190 | 1.11° C | 97% | 1018.1 hPa | 0 mm | - | 0 W/m² | - |
| 1777348887 | 1.11° C | 97% | 1017.7 hPa | 0 mm | - | 0 W/m² | - |
| 1777348585 | 1.67° C | 97% | 1017.9 hPa | 0 mm | - | 0 W/m² | - |
| 1777348282 | 1.67° C | 97% | 1018 hPa | 0 mm | - | 0 W/m² | - |
| 1777347980 | 2.22° C | 97% | 1017.5 hPa | 0 mm | - | 0 W/m² | - |
| 1777347678 | 2.22° C | 97% | 1016.5 hPa | 0 mm | - | 0 W/m² | - |
| 1777347375 | 1.67° C | 97% | 1017.2 hPa | 1.27 mm | - | 0 W/m² | - |
| 1777347070 | 2.22° C | 96% | 1017.1 hPa | 1.27 mm | - | 0 W/m² | - |
| 1777346767 | 2.78° C | 96% | 1017.2 hPa | 0 mm | - | 0 W/m² | - |
| 1777346463 | 2.78° C | 96% | 1017.1 hPa | 0 mm | - | 0 W/m² | - |
| 1777346160 | 2.78° C | 96% | 1017.1 hPa | 0 mm | - | 0 W/m² | - |
| 1777345857 | 2.78° C | 96% | 1016.4 hPa | 1.78 mm | - | 0 W/m² | - |
| 1777345555 | 2.78° C | 96% | 1016.9 hPa | 1.78 mm | - | 0 W/m² | - |
| 1777345251 | 2.78° C | 97% | 1017.4 hPa | 1.27 mm | - | 0 W/m² | - |
| 1777344948 | 2.78° C | 98% | 1017 hPa | 1.27 mm | - | 0 W/m² | - |
| 1777344644 | 2.78° C | 98% | 1016.2 hPa | 0 mm | - | 0 W/m² | - |
* Rain latest hour (hover to see other rain measurements)
** Current wind speed in m/s (hover to see current wind gust speed)